| time (UTC) | temp F | wind direction | speed knots | gust knots | rain 1hr in | rain 24hr in | rain mn in | humidity % | barometer mb |
| 20260906181551 | 83 | 109 | 4.3 | 7.8 | 0.01 | 0.01 | 0.01 | 54 | 954.7 |
| 20260906180111 | 83 | 96 | 2.6 | 6.1 | 0.01 | 0.01 | 0.01 | 55 | 954.7 |
| 20260906174543 | 83 | 92 | 1.7 | 5.2 | 0.01 | 0.01 | 0.01 | 55 | 954.6 |
| 20260906173041 | 84 | 271 | 0.0 | 0.0 | 0.00 | 0.00 | 0.00 | 51 | 954.5 |
| 20260906171539 | 85 | 269 | 0.0 | 0.0 | 0.00 | 0.00 | 0.00 | 49 | 954.3 |
| 20260906170040 | 85 | 269 | 0.0 | 1.7 | 0.00 | 0.00 | 0.00 | 47 | 954.1 |
| 20260906164533 | 85 | 276 | 2.6 | 5.2 | 0.00 | 0.00 | 0.00 | 46 | 953.8 |
| 20260906163033 | 85 | 311 | 0.0 | 0.0 | 0.00 | 0.00 | 0.00 | 43 | 953.4 |
| 20260906161528 | 85 | 351 | 0.0 | 0.0 | 0.00 | 0.00 | 0.00 | 43 | 953.2 |
| 20260906160027 | 85 | 352 | 0.0 | 0.0 | 0.00 | 0.00 | 0.00 | 44 | 953.1 |
| 20260906154526 | 84 | 350 | 0.0 | 0.0 | 0.00 | 0.00 | 0.00 | 46 | 953.0 |
| 20260906153026 | 85 | 350 | 0.0 | 0.0 | 0.00 | 0.00 | 0.00 | 44 | 953.0 |
| 20260906151528 | 85 | 85 | 0.0 | 0.0 | 0.00 | 0.00 | 0.00 | 42 | 952.8 |
| 20260906150020 | 85 | 85 | 0.0 | 0.0 | 0.00 | 0.00 | 0.00 | 43 | 952.5 |
| 20260906144518 | 85 | 86 | 0.0 | 0.0 | 0.00 | 0.00 | 0.00 | 43 | 952.4 |
| 20260906143015 | 85 | 67 | 0.0 | 1.7 | 0.00 | 0.00 | 0.00 | 42 | 952.1 |
| 20260906141518 | 85 | 321 | 0.0 | 1.7 | 0.00 | 0.00 | 0.00 | 41 | 951.9 |
| 20260906140024 | 85 | 319 | 0.9 | 4.3 | 0.00 | 0.00 | 0.00 | 42 | 951.8 |
| 20260906134510 | 85 | 296 | 0.0 | 0.0 | 0.00 | 0.00 | 0.00 | 41 | 951.7 |
| 20260906133008 | 85 | 258 | 0.9 | 2.6 | 0.00 | 0.00 | 0.00 | 41 | 951.4 |
| 20260906131506 | 86 | 72 | 2.6 | 7.0 | 0.00 | 0.00 | 0.00 | 39 | 951.2 |
| 20260906130006 | 86 | 75 | 5.2 | 9.6 | 0.00 | 0.00 | 0.00 | 40 | 950.9 |
| 20260906124505 | 85 | 90 | 4.3 | 7.8 | 0.00 | 0.00 | 0.00 | 39 | 951.0 |
| 20260906123003 | 85 | 97 | 4.3 | 10.4 | 0.00 | 0.00 | 0.00 | 42 | 951.1 |
| 20260906121509 | 84 | 91 | 7.8 | 12.2 | 0.00 | 0.00 | 0.00 | 43 | 951.1 |
| 20260906120100 | 86 | 114 | 7.0 | 13.9 | 0.00 | 0.00 | 0.00 | 43 | 951.1 |
| 20260906114611 | 86 | 138 | 2.6 | 7.0 | 0.00 | 0.00 | 0.00 | 38 | 951.1 |
| 20260906113057 | 87 | 210 | 0.0 | 4.3 | 0.00 | 0.00 | 0.00 | 34 | 951.0 |
| 20260906111553 | 87 | 199 | 0.0 | 0.0 | 0.00 | 0.00 | 0.00 | 33 | 950.6 |
| 20260906110049 | 87 | 83 | 0.0 | 0.0 | 0.00 | 0.00 | 0.00 | 33 | 950.5 |
| 20260906104549 | 87 | 82 | 0.0 | 0.0 | 0.00 | 0.00 | 0.00 | 32 | 950.4 |
| 20260906103048 | 87 | 84 | 0.0 | 0.0 | 0.00 | 0.00 | 0.00 | 32 | 950.3 |
| 20260906101548 | 88 | 0.0 | 0.0 | 0.00 | 0.00 | 0.00 | 32 | 950.3 | |
| 20260906100046 | 87 | 83 | 0.0 | 0.0 | 0.00 | 0.00 | 0.00 | 31 | 950.1 |
| 20260906094545 | 88 | 119 | 0.0 | 0.0 | 0.00 | 0.00 | 0.00 | 32 | 950.1 |
| 20260906093043 | 88 | 0.0 | 0.0 | 0.00 | 0.00 | 0.00 | 31 | 950.1 | |
| 20260906091542 | 88 | 120 | 0.0 | 0.0 | 0.00 | 0.00 | 0.00 | 31 | 950.1 |
| 20260906090042 | 88 | 0.0 | 0.0 | 0.00 | 0.00 | 0.00 | 31 | 950.1 | |
| 20260906084540 | 89 | 0.0 | 0.0 | 0.00 | 0.00 | 0.00 | 30 | 950.1 | |
| 20260906083039 | 89 | 145 | 0.0 | 0.0 | 0.00 | 0.00 | 0.00 | 30 | 950.3 |
| 20260906081544 | 89 | 0.0 | 0.0 | 0.00 | 0.00 | 0.00 | 30 | 950.3 | |
| 20260906080040 | 89 | 0.0 | 0.0 | 0.00 | 0.00 | 0.00 | 30 | 950.3 | |
| 20260906074541 | 90 | 0.0 | 0.0 | 0.00 | 0.00 | 0.00 | 30 | 950.3 | |
| 20260906073033 | 89 | 0.0 | 0.0 | 0.00 | 0.00 | 0.00 | 30 | 950.3 | |
| 20260906071535 | 89 | 0.0 | 0.0 | 0.00 | 0.00 | 0.00 | 30 | 950.4 | |
| 20260906070028 | 89 | 0.0 | 0.0 | 0.00 | 0.00 | 0.00 | 29 | 950.5 | |
| 20260906064528 | 89 | 0.0 | 0.0 | 0.00 | 0.00 | 0.00 | 29 | 950.4 | |
| 20260906063027 | 90 | 0.0 | 0.0 | 0.00 | 0.00 | 0.00 | 29 | 950.4 | |
| 20260906061527 | 90 | 0.0 | 0.0 | 0.00 | 0.00 | 0.00 | 29 | 950.3 | |
| 20260906060126 | 90 | 0.0 | 0.0 | 0.00 | 0.00 | 0.00 | 28 | 950.4 | |
| 20260906054530 | 91 | 0.0 | 6.1 | 0.00 | 0.00 | 0.00 | 27 | 950.5 | |
| 20260906053031 | 90 | 0.0 | 1.7 | 0.00 | 0.00 | 0.00 | 27 | 950.4 | |
| 20260906051524 | 90 | 0.0 | 3.5 | 0.00 | 0.00 | 0.00 | 27 | 950.5 | |
| 20260906050032 | 91 | 0.0 | 0.9 | 0.00 | 0.00 | 0.00 | 26 | 950.4 | |
| 20260906044534 | 91 | 94 | 0.0 | 0.9 | 0.00 | 0.00 | 0.00 | 26 | 950.5 |
| 20260906043022 | 93 | 177 | 0.9 | 6.1 | 0.00 | 0.00 | 0.00 | 25 | 950.3 |
| 20260906041521 | 93 | 144 | 4.3 | 8.7 | 0.00 | 0.00 | 0.00 | 25 | 950.2 |
| 20260906040028 | 94 | 151 | 4.3 | 9.6 | 0.00 | 0.00 | 0.00 | 25 | 950.2 |
| 20260906034523 | 94 | 167 | 2.6 | 7.0 | 0.00 | 0.00 | 0.00 | 25 | 950.0 |
| 20260906033035 | 94 | 172 | 2.6 | 7.0 | 0.00 | 0.00 | 0.00 | 25 | 950.0 |
| 20260906031518 | 94 | 158 | 5.2 | 10.4 | 0.00 | 0.00 | 0.00 | 24 | 949.7 |
| 20260906030019 | 95 | 143 | 4.3 | 7.8 | 0.00 | 0.00 | 0.00 | 24 | 949.6 |
| 20260906024517 | 95 | 175 | 5.2 | 8.7 | 0.00 | 0.00 | 0.00 | 24 | 949.4 |
| 20260906023017 | 95 | 143 | 5.2 | 12.2 | 0.00 | 0.00 | 0.00 | 24 | 949.3 |
| 20260906021516 | 96 | 134 | 5.2 | 9.6 | 0.00 | 0.00 | 0.00 | 24 | 949.2 |
| 20260906020015 | 96 | 158 | 7.8 | 13.0 | 0.00 | 0.00 | 0.00 | 24 | 949.2 |
| 20260906014515 | 97 | 133 | 6.1 | 10.4 | 0.00 | 0.00 | 0.00 | 23 | 949.3 |
| 20260906013014 | 98 | 168 | 4.3 | 12.2 | 0.00 | 0.00 | 0.00 | 23 | 949.4 |
| 20260906011513 | 98 | 184 | 7.8 | 13.9 | 0.00 | 0.00 | 0.00 | 23 | 949.4 |
| 20260906010014 | 99 | 176 | 9.6 | 14.8 | 0.00 | 0.00 | 0.00 | 23 | 949.4 |
| 20260906004512 | 99 | 12.2 | 17.4 | 0.00 | 0.00 | 0.00 | 23 | 949.4 | |
| 20260906003010 | 100 | 196 | 3.5 | 17.4 | 0.00 | 0.00 | 0.00 | 22 | 949.4 |
| 20260906001509 | 100 | 158 | 9.6 | 18.2 | 0.00 | 0.00 | 0.00 | 22 | 949.4 |
| 20260906000009 | 101 | 203 | 7.0 | 16.5 | 0.00 | 0.00 | 0.00 | 20 | 949.3 |
| 20260905234508 | 101 | 229 | 7.0 | 18.2 | 0.00 | 0.00 | 0.00 | 19 | 949.2 |
| 20260905233007 | 100 | 219 | 8.7 | 19.1 | 0.00 | 0.00 | 0.00 | 19 | 949.2 |
| 20260905231508 | 101 | 223 | 9.6 | 22.6 | 0.00 | 0.00 | 0.00 | 19 | 949.3 |
| 20260905230005 | 101 | 236 | 9.6 | 15.6 | 0.00 | 0.00 | 0.00 | 18 | 949.4 |
| 20260905224505 | 101 | 212 | 5.2 | 20.0 | 0.00 | 0.00 | 0.00 | 18 | 949.6 |
| 20260905223003 | 101 | 191 | 6.1 | 20.9 | 0.00 | 0.00 | 0.00 | 18 | 949.6 |
| 20260905221503 | 101 | 214 | 7.8 | 18.2 | 0.00 | 0.00 | 0.00 | 17 | 950.0 |
| 20260905220002 | 101 | 200 | 6.1 | 17.4 | 0.00 | 0.00 | 0.00 | 17 | 949.9 |
| 20260905214601 | 101 | 188 | 7.8 | 16.5 | 0.00 | 0.00 | 0.00 | 18 | 950.1 |
| 20260905213059 | 100 | 210 | 11.3 | 17.4 | 0.00 | 0.00 | 0.00 | 18 | 950.3 |
| 20260905211629 | 100 | 205 | 11.3 | 20.9 | 0.00 | 0.00 | 0.00 | 18 | 950.5 |
| 20260905210057 | 99 | 231 | 9.6 | 19.1 | 0.00 | 0.00 | 0.00 | 17 | 950.6 |
| 20260905204558 | 99 | 224 | 6.1 | 16.5 | 0.00 | 0.00 | 0.00 | 16 | 950.8 |
| 20260905203114 | 99 | 204 | 11.3 | 19.1 | 0.00 | 0.00 | 0.00 | 16 | 951.0 |
| 20260905201552 | 98 | 158 | 7.8 | 18.2 | 0.00 | 0.00 | 0.00 | 16 | 951.4 |
| 20260905200056 | 97 | 235 | 6.1 | 19.1 | 0.00 | 0.00 | 0.00 | 16 | 951.6 |
| 20260905194547 | 97 | 195 | 7.8 | 17.4 | 0.00 | 0.00 | 0.00 | 16 | 951.8 |
| 20260905193047 | 96 | 210 | 9.6 | 15.6 | 0.00 | 0.00 | 0.00 | 16 | 951.9 |
| 20260905191546 | 96 | 161 | 6.1 | 16.5 | 0.00 | 0.00 | 0.00 | 16 | 952.0 |
| 20260905190043 | 96 | 9.6 | 13.9 | 0.00 | 0.00 | 0.00 | 16 | 952.0 | |
| 20260905184541 | 95 | 231 | 6.1 | 13.0 | 0.00 | 0.00 | 0.00 | 16 | 952.2 |
| 20260905183038 | 94 | 2.6 | 12.2 | 0.00 | 0.00 | 0.00 | 16 | 952.3 |